This is the latest recevied weather packets stored in our database for station/object IZ1UQG-1. If no packets are shown the sender has not sent any weather packets the latest 1 day(s).
| Time | Temp. | Humidity | Pressure | Rain* | Wind** | Luminosity | Snow |
|---|---|---|---|---|---|---|---|
| 1778075033 | 13.33° C | 85% | 1009.5 hPa | 128.78 mm | - | - | - |
| 1778074733 | 13.33° C | 85% | 1009.7 hPa | 124.71 mm | - | - | - |
| 1778074433 | 13.33° C | 85% | 1009.7 hPa | 123.19 mm | - | - | - |
| 1778073833 | 12.78° C | 84% | 1009.7 hPa | 115.82 mm | - | - | - |
| 1778073533 | 12.78° C | 84% | 1009.7 hPa | 104.39 mm | - | - | - |
| 1778073233 | 12.78° C | 84% | 1009.8 hPa | 104.9 mm | - | - | - |
| 1778072933 | 12.78° C | 84% | 1009.8 hPa | 93.73 mm | - | - | - |
| 1778072633 | 12.78° C | 84% | 1009.8 hPa | 89.92 mm | - | - | - |
| 1778072033 | 12.78° C | 84% | 1009.6 hPa | 86.87 mm | - | - | - |
| 1778071733 | 12.22° C | 83% | 1009.5 hPa | 80.26 mm | - | - | - |
| 1778071133 | 12.22° C | 83% | 1009.4 hPa | 79.25 mm | - | - | - |
| 1778070833 | 12.22° C | 83% | 1009.4 hPa | 94.23 mm | - | - | - |
| 1778069633 | 12.78° C | 84% | 1009.4 hPa | 129.29 mm | - | - | - |
| 1778068733 | 12.78° C | 84% | 1008.8 hPa | 167.64 mm | - | - | - |
| 1778068133 | 13.33° C | 84% | 1008.5 hPa | 218.44 mm | - | - | - |
| 1778067233 | 13.89° C | 84% | 1007.7 hPa | 13.21 mm | - | - | - |
| 1778066933 | 13.89° C | 84% | 1007.6 hPa | 19.3 mm | - | - | - |
| 1778066333 | 13.89° C | 84% | 1007.7 hPa | 13.21 mm | - | - | - |
| 1778066033 | 13.89° C | 85% | 1007.8 hPa | 47.24 mm | - | - | - |
| 1778065733 | 13.89° C | 84% | 1007.7 hPa | 38.1 mm | - | - | - |
| 1778065433 | 13.89° C | 84% | 1007.6 hPa | 36.58 mm | - | - | - |
| 1778065133 | 13.89° C | 85% | 1007.4 hPa | 85.09 mm | - | - | - |
| 1778064833 | 13.89° C | 85% | 1007.3 hPa | 65.02 mm | - | - | - |
| 1778064533 | 13.89° C | 85% | 1007.7 hPa | 58.67 mm | - | - | - |
| 1778064233 | 13.89° C | 85% | 1007.8 hPa | 54.1 mm | - | - | - |
* Rain latest hour (hover to see other rain measurements)
** Current wind speed in m/s (hover to see current wind gust speed)